Lamar, CO

3:35 AM MST on January 18, 2018 (GMT -0700)
Lamar Municipal

Weather History for KLAA - September, 2013

Change the Weather History Date:

Friday, September 27, 2013

  Actual Average Record
Temperature  
Mean Temperature 67 °F 62 °F  
Max Temperature 84 °F 79 °F 102 °F (1935)
Min Temperature 49 °F 45 °F 31 °F (1924)
Degree Days  
Heating Degree Days 0 5  
Month to date heating degree days 9 62  
Since 1 July heating degree days 9 67  
Cooling Degree Days 2 2  
Month to date cooling degree days 224 117  
Year to date cooling degree days 1565 1106  
Growing Degree Days 17 (Base 50)    
Moisture  
Dew Point 50 °F    
Average Humidity 58    
Maximum Humidity 83    
Minimum Humidity 32    
Precipitation  
Precipitation 0.35 in 0.03 in 0.99 in (1976)
Month to date precipitation 2.69 1.16  
Year to date precipitation 9.37  
Sea Level Pressure  
Sea Level Pressure 29.62 in    
Wind  
Wind Speed 22 mph (WSW)    
Max Wind Speed 37 mph    
Max Gust Speed 47 mph    
Visibility 8 miles    
Events Rain , Thunderstorm    
T = Trace of Precipitation, MM = Missing Value Source: NWS Daily Summary

Daily Weather History Graph

Daily Weather History Graph

Search for Another Location

Airport or City:

Trip Planner

Search our weather history database for the weather conditions in past years. The results will help you decide how hot, cold, wet, or windy it might be!

Date:

Astronomy

Sep. 27, 2013 Rise Set
Actual Time 6:43 AM MDT 6:39 PM MDT
Civil Twilight 6:16 AM MDT 7:05 PM MDT
Nautical Twilight 5:46 AM MDT 7:36 PM MDT
Astronomical Twilight 5:15 AM MDT 8:07 PM MDT
Moon No Moon Rise 2:14 PM MDT (9/27)
Length of Visible Light 12h 48m
Length of Day
11h 56m
Last Quarter, 44% of the Moon is Illuminated
Sep 27
Last Quarter
Oct 4
New
Oct 11
First Quarter
Oct 18
Full
Oct 26
Last Quarter

Hourly Weather History & Observations

Time (MDT) Temp. Heat Index Dew Point Humidity Pressure Visibility Wind Dir Wind Speed Gust Speed Precip Events Conditions
12:53 AM 71.1 °F - 44.1 °F 38% 29.52 in 10.0 mi SSW 12.7 mph - N/A   Clear
1:53 AM 70.0 °F - 45.0 °F 41% 29.53 in 10.0 mi South 15.0 mph 20.7 mph N/A   Partly Cloudy
2:53 AM 69.1 °F - 45.0 °F 42% 29.53 in 10.0 mi South 17.3 mph - N/A   Clear
3:53 AM 66.9 °F - 46.9 °F 49% 29.53 in 10.0 mi South 23.0 mph - N/A   Clear
4:53 AM 68.0 °F - 46.0 °F 45% 29.55 in 10.0 mi South 21.9 mph 28.8 mph N/A   Clear
5:53 AM 69.1 °F - 43.0 °F 39% 29.56 in 10.0 mi SSW 17.3 mph - N/A   Clear
6:53 AM 72.0 °F - 43.0 °F 35% 29.57 in 10.0 mi South 17.3 mph 23.0 mph N/A   Clear
7:53 AM 73.0 °F - 44.1 °F 35% 29.57 in 10.0 mi South 17.3 mph 23.0 mph N/A   Clear
8:53 AM 75.9 °F - 46.9 °F 36% 29.58 in 10.0 mi South 20.7 mph 31.1 mph N/A   Clear
9:53 AM 78.1 °F - 46.9 °F 33% 29.58 in 10.0 mi SSW 18.4 mph 26.5 mph N/A   Clear
10:53 AM 75.9 °F - 50.0 °F 40% 29.57 in 10.0 mi South 18.4 mph 29.9 mph N/A   Clear
11:53 AM 77.0 °F - 52.0 °F 42% 29.56 in 10.0 mi South 26.5 mph 39.1 mph N/A   Clear
12:53 PM 77.0 °F - 52.0 °F 42% 29.53 in 10.0 mi South 25.3 mph 34.5 mph N/A   Clear
1:53 PM 82.9 °F - 51.1 °F 33% 29.48 in 10.0 mi South 26.5 mph 39.1 mph N/A   Clear
2:53 PM 82.0 °F 81.4 °F 55.0 °F 39% 29.47 in 10.0 mi South 29.9 mph 40.3 mph N/A   Clear
3:53 PM 81.0 °F 80.8 °F 55.9 °F 42% 29.46 in 9.0 mi SSE 31.1 mph 42.6 mph N/A   Partly Cloudy
4:53 PM 82.9 °F 82.0 °F 55.0 °F 38% 29.44 in 8.0 mi South 31.1 mph 42.6 mph N/A   Partly Cloudy
5:36 PM 77.0 °F - 50.0 °F 39% 29.65 in 8.0 mi WNW 20.7 mph 43.7 mph N/A Thunderstorm Scattered Clouds
5:46 PM 69.8 °F - 53.6 °F 56% 29.68 in 7.0 mi NW 18.4 mph 26.5 mph 0.01 in Rain , Thunderstorm Light Rain
5:53 PM 64.0 °F - 55.0 °F 73% 29.56 in 1.2 mi North 23.0 mph - 0.19 in Rain , Thunderstorm Heavy Rain
5:55 PM 64.4 °F - 55.4 °F 73% 29.68 in 1.0 mi NNW 20.7 mph - 0.03 in Rain , Thunderstorm Heavy Rain
5:59 PM 64.4 °F - 55.4 °F 73% 29.70 in 1.2 mi NNW 17.3 mph - 0.05 in Rain Rain
6:03 PM 64.4 °F - 55.4 °F 73% 29.70 in 2.0 mi NNW 12.7 mph - 0.07 in Rain Rain
6:15 PM 64.4 °F - 57.2 °F 77% 29.70 in 2.5 mi North 6.9 mph - 0.14 in Rain , Thunderstorm Rain
6:22 PM 62.6 °F - 57.2 °F 82% 29.69 in 5.0 mi North 6.9 mph - 0.16 in Rain , Thunderstorm Light Rain
6:30 PM 64.4 °F - 57.2 °F 77% 29.70 in 10.0 mi North 8.1 mph - 0.16 in Rain Light Rain
6:53 PM 62.1 °F - 55.9 °F 80% 29.61 in 10.0 mi NNW 17.3 mph - 0.16 in   Mostly Cloudy
7:53 PM 55.9 °F - 50.0 °F 80% 29.68 in 10.0 mi North 17.3 mph 28.8 mph N/A   Mostly Cloudy
8:50 PM 53.6 °F - 48.2 °F 82% 29.86 in 10.0 mi NNW 15.0 mph 21.9 mph N/A   Scattered Clouds
8:53 PM 54.0 °F - 48.0 °F 80% 29.75 in 10.0 mi NNW 12.7 mph 21.9 mph N/A   Scattered Clouds
9:53 PM 53.1 °F - 46.9 °F 80% 29.76 in 10.0 mi North 23.0 mph 29.9 mph N/A   Mostly Cloudy
10:53 PM 52.0 °F - 46.0 °F 80% 29.81 in 10.0 mi North 26.5 mph 38.0 mph N/A   Overcast
11:53 PM 50.0 °F - 42.1 °F 74% 29.84 in 10.0 mi North 23.0 mph 31.1 mph N/A   Mostly Cloudy